Regional Weather Roundup
Issued by NWS Midland/Odessa, TX

Skip options and go directly to product.
Home | Oldest Version | Next Version | Current Version | All | Text Only | Save Text | Print | Product List | Glossary On

Skip product version selection by date and time.   
574
ASUS44 KMAF 211202
RWRMAF
MIDLAND AREA WEATHER ROUNDUP
NATIONAL WEATHER SERVICE MIDLAND TX
700 AM CDT TUE OCT 21 2014

...IN SOUTHWEST TEXAS AND SOUTHEAST NEW MEXICO...

CITY           SKY/WX    TMP DP  RH WIND       PRES   REMARKS
ALPINE         CLOUDY    55  54  95 S3        30.19R
ANDREWS        FAIR      52  49  90 NE3       30.11R
ARTESIA        NOT AVBL
BIG SPRING     MOCLDY    61  55  81 CALM      30.12S
CARLSBAD       LGT RAIN  61  59  93 NW7       30.07F
DRYDEN           N/A     65  61  87 E10       30.03S
FORT STOCKTON  LGT RAIN  62  59  90 E7        30.08R
GUAD PASS      NOT AVBL
HOBBS          CLOUDY    57  55  94 CALM      30.12
MARFA          CLOUDY    54  54 100 NE10      30.13F
MIDLAND AIRPK  PTCLDY    61  53  75 CALM      30.10S
MIDLAND INTL   PTCLDY    59  52  77 SE3       30.09S
ODESSA         PTCLDY    58  52  80 SE6       30.10R
PECOS          CLOUDY    61  59  93 CALM      30.06S
PRESIDIO       CLOUDY    64  61  89 MISG      30.03R
SEMINOLE       PTCLDY    53  50  87 CALM      30.12S
SNYDER         CLEAR     57  53  86 S7        30.11R
WINK           CLOUDY    60  59  96 E6        30.06S
$$
...OTHER STATIONS IN TEXAS...

CITY           SKY/WX    TMP DP  RH WIND       PRES   REMARKS
ABILENE        CLEAR     61  54  77 CALM      30.09R
AMARILLO       PTCLDY    53  50  89 S8        30.12S
AUSTIN         CLEAR     55  54  96 CALM      30.05R
BROWNSVILLE    CLEAR     70  68  93 N3        29.91S
CORPUS CHRISTI PTCLDY    71  69  93 NE12      29.96S
DALLAS FTW     PTCLDY    60  56  86 CALM      30.07R
DEL RIO        CLOUDY    68  59  73 E6        30.02R
EL PASO        PTCLDY    58  54  86 N6        30.07R
HOUSTON INT    PTCLDY    58  54  86 NE3       30.03R
LUBBOCK        PTCLDY    50  47  89 NW3       30.12R
SAN ANGELO     PTCLDY    54  50  86 CALM      30.08R
SAN ANTONIO    PTCLDY    62  58  86 NW3       30.04R
WACO           CLEAR     56  55  97 CALM      30.07R FOG
WICHITA FALLS  NOT AVBL
$$
...OTHER LOCATIONS IN NEW MEXICO...

CITY           SKY/WX    TMP DP  RH WIND       PRES   REMARKS
ALAMAGORDO     NOT AVBL
ALBUQUERQUE    CLOUDY    53  48  83 N7        30.15S
CANNON AFB     CLEAR     51  48  92 N7        30.14S
CLOVIS         NOT AVBL
HOLLOMAN AFB   MOCLDY    54  54 100 E6        30.08S
ROSWELL        MOCLDY    57  55  93 CALM      30.12R
RUIDOSO        PTCLDY    45  43  93 S3        30.23R
SANTA FE       MOCLDY    47  44  90 N5        30.19S
TRUTH OR CONSE PTCLDY    53  51  93 N5        30.10S
TUCUMCARI      PTCLDY    49  44  83 S3        30.12R
$$

USA.gov is the U.S. government's official web portal to all federal, state and local government web resources and services.